User: anonymous   Login
Location: Plum
(40.5000°N, 79.7500°W)
Time: 14:12:12
(UTC-05:00)
Language:

Cosmos 1825 - Orbit

View from above orbital plane
View from above orbital plane
View from above satellite
View from above satellite

Ground track
Ground track

The orbit data is extracted from the following two-line orbital elements,

1 17566U 87024A   17049.57452961 +.00000907 +00000-0 +42551-4 0  9993
2 17566 082.5032 047.7286 0002155 269.8450 090.2537 15.18437566635554
Epoch (UTC): 18 February 2017 13:47:19
Eccentricity: 0.0002155
inclination: 82.5032°
perigee height: 509 km
apogee height: 512 km
right ascension of ascending node: 47.7286°
argument of perigee: 269.8450°
revolutions per day: 15.18437566
mean anomaly at epoch: 90.2537°
orbit number at epoch: 63555

The dashed part of the orbit path shows where the satellite is in the earth's shadow,  

DLR